Location: Colonia Mina de C?rbuni
(46.1667°N, 22.7167°E)
Time: 07:26:20
(UTC+00:00)

Vanguard 2 - Pass Details

Date: 18 April 2024
Orbit: 552 x 2914 km, 32.9° (Epoch: 27 May)

Event Time Altitude Azimuth Distance (km) Brightness Sun altitude
Rises 02:48:05 0° 251° (WSW) 6,504 - -8.7°
Exits shadow 02:51:53 - 248° (WSW) 5,732 11.3 -8.1°
Reaches altitude 10° 02:52:24 10° 247° (WSW) 5,630 11.2 -8.0°
Maximum altitude 03:09:00 51° 179° (S) 3,334 10.6 -5.4°
Drops below altitude 10° 03:23:16 10° 110° (ESE) 4,901 12.5 -3.1°
Sets 03:26:43 0° 106° (ESE) 5,641 13.0 -2.5°
